Weather History for Crossville, TN

Change the Weather History Date:

Tuesday, February 19, 2013

  Actual Average Record
Temperature  
Mean Temperature 38 °F 40 °F  
Max Temperature 46 °F 49 °F 70 °F (1986)
Min Temperature 30 °F 31 °F -1 °F (1958)
Degree Days  
Heating Degree Days 27    
Month to date heating degree days 512  
Since 1 July heating degree days 2902  
Cooling Degree Days 0    
Month to date cooling degree days 0  
Year to date cooling degree days 0  
Moisture  
Dew Point 28 °F    
Average Humidity 59    
Maximum Humidity 85    
Minimum Humidity 32    
Precipitation  
Precipitation 0.12 in 0.16 in 2.08 in (1991)
Month to date precipitation 1.56 3.02  
Year to date precipitation 8.69 7.78  
Sea Level Pressure  
Sea Level Pressure 30.02 in    
Wind  
Wind Speed 11 mph (West)    
Max Wind Speed 22 mph    
Max Gust Speed 36 mph    
Visibility 9 miles    
Events Rain    
T = Trace of Precipitation, MM = Missing Value Source: NWS Daily Summary

Daily Weather History Graph

Daily Weather History Graph

Search for Another Location

Airport:

Trip Planner

Search our weather history database for the weather conditions in past years. The results will help you decide how hot, cold, wet, or windy it might be!

Date:

Astronomy

Feb. 19, 2013 Rise Set
Actual Time 6:22 AM CST 5:26 PM CST
Civil Twilight 5:56 AM CST 5:52 PM CST
Nautical Twilight 5:26 AM CST 6:22 PM CST
Astronomical Twilight 4:57 AM CST 6:51 PM CST
Moon 12:02 PM CST (2/19) 1:48 AM CST (2/19)
Length of Visible Light 11h 55m
Length of Day
11h 03m
Waxing Gibbous, 67% of the Moon is Illuminated
Feb 19
Waxing Gibbous
Feb 25
Full
Mar 4
Last Quarter
Mar 11
New
Mar 19
First Quarter

Hourly Weather History & Observations

Time (CST) Temp. Windchill Dew Point Humidity Pressure Visibility Wind Dir Wind Speed Gust Speed Precip Events Conditions
12:53 AM 39.9 °F 33.4 °F 34.0 °F 79% 29.94 in 8.0 mi South 10.4 mph 29.9 mph 0.06 in Rain Light Rain
1:53 AM 39.0 °F 33.4 °F 34.0 °F 82% 29.97 in 8.0 mi SSW 8.1 mph 17.3 mph 0.04 in Rain Light Rain
2:53 AM 37.9 °F 30.0 °F 34.0 °F 86% 29.92 in 10.0 mi South 12.7 mph 23.0 mph 0.01 in   Overcast
3:34 AM 37.4 °F 30.8 °F 33.8 °F 87% 29.90 in 10.0 mi South 9.2 mph 23.0 mph N/A   Overcast
3:53 AM 37.9 °F 32.1 °F 34.0 °F 86% 29.92 in 10.0 mi South 8.1 mph 21.9 mph N/A   Overcast
4:53 AM 37.9 °F 31.5 °F 34.0 °F 86% 29.90 in 10.0 mi South 9.2 mph - N/A   Overcast
5:12 AM 37.4 °F 30.8 °F 35.6 °F 93% 29.90 in 6.0 mi South 9.2 mph - N/A   Overcast
5:53 AM 39.0 °F 34.0 °F 36.0 °F 89% 29.92 in 8.0 mi SSW 6.9 mph - N/A   Overcast
6:53 AM 41.0 °F 37.1 °F 39.0 °F 93% 29.94 in 4.0 mi WSW 5.8 mph - 0.02 in Rain Light Rain
7:53 AM 39.0 °F 31.4 °F 37.0 °F 93% 29.99 in 2.5 mi WNW 12.7 mph 21.9 mph 0.00 in   Overcast
8:15 AM 37.4 °F 29.3 °F 35.6 °F 93% 29.99 in 2.5 mi West 12.7 mph - N/A   Overcast
8:27 AM 37.4 °F 29.3 °F 35.6 °F 93% 30.00 in 4.0 mi WNW 12.7 mph - N/A   Overcast
8:39 AM 37.4 °F 29.3 °F 35.6 °F 93% 30.00 in 8.0 mi West 12.7 mph 18.4 mph N/A   Overcast
8:53 AM 39.0 °F 32.3 °F 35.1 °F 86% 30.01 in 9.0 mi West 10.4 mph 17.3 mph N/A   Overcast
9:11 AM 39.2 °F 31.2 °F 33.8 °F 81% 30.00 in 10.0 mi WNW 13.8 mph 18.4 mph N/A   Overcast
9:53 AM 39.9 °F 32.5 °F 32.0 °F 73% 30.02 in 10.0 mi West 12.7 mph 20.7 mph N/A   Mostly Cloudy
10:31 AM 42.8 °F 35.8 °F 30.2 °F 61% 30.01 in 10.0 mi West 13.8 mph 23.0 mph N/A   Mostly Cloudy
10:53 AM 43.0 °F 36.0 °F 28.9 °F 58% 30.01 in 10.0 mi West 13.8 mph 20.7 mph N/A   Scattered Clouds
1:53 PM 45.0 °F 37.1 °F 17.1 °F 33% 30.02 in 10.0 mi West 19.6 mph 28.8 mph N/A   Partly Cloudy
2:53 PM 45.0 °F 38.2 °F 18.0 °F 34% 30.03 in 10.0 mi WNW 15.0 mph 25.3 mph N/A   Clear
3:53 PM 44.1 °F 38.6 °F 18.0 °F 35% 30.05 in 10.0 mi WNW 10.4 mph 23.0 mph N/A   Clear
4:53 PM 41.0 °F 32.5 °F 14.0 °F 33% 30.08 in 10.0 mi WNW 17.3 mph 24.2 mph N/A   Clear
6:53 PM 36.0 °F 30.3 °F 14.0 °F 41% 30.13 in 10.0 mi WNW 6.9 mph - N/A   Clear
7:53 PM 35.1 °F 27.9 °F 15.1 °F 44% 30.14 in 10.0 mi WNW 9.2 mph - N/A   Clear
8:53 PM 34.0 °F 25.0 °F 15.1 °F 46% 30.16 in 10.0 mi WNW 12.7 mph 18.4 mph N/A   Clear
9:53 PM 32.0 °F 24.8 °F 15.1 °F 50% 30.18 in 10.0 mi West 8.1 mph - N/A   Clear
10:53 PM 30.0 °F 25.2 °F 15.1 °F 54% 30.19 in 10.0 mi West 4.6 mph - N/A   Clear
11:53 PM 30.0 °F 25.2 °F 15.1 °F 54% 30.17 in 10.0 mi WNW 4.6 mph - N/A   Clear